This is the latest recevied weather packets stored in our database for station/object OK1JIL-13. If no packets are shown the sender has not sent any weather packets the latest 10 day(s).
| Time | Temp. | Humidity | Pressure | Rain* | Wind** | Luminosity | Snow |
|---|---|---|---|---|---|---|---|
| 1777647798 | 17.22° C | 30% | 1028.4 hPa | - | - | - | - |
| 1777647199 | 17.22° C | 30% | 1028.4 hPa | - | - | - | - |
| 1777646599 | 16.67° C | 31% | 1028.4 hPa | - | - | - | - |
| 1777645998 | 17.22° C | 29% | 1028.4 hPa | - | - | - | - |
| 1777645399 | 16.67° C | 32% | 1028.4 hPa | - | - | - | - |
| 1777644798 | 17.22° C | 29% | 1028.5 hPa | - | - | - | - |
| 1777644198 | 17.22° C | 29% | 1028.5 hPa | - | - | - | - |
| 1777643599 | 17.78° C | 30% | 1028.5 hPa | - | - | - | - |
| 1777642398 | 17.78° C | 31% | 1028.7 hPa | - | - | - | - |
| 1777641798 | 17.78° C | 31% | 1028.8 hPa | - | - | - | - |
| 1777641198 | 17.22° C | 31% | 1028.7 hPa | - | - | - | - |
| 1777639999 | 17.22° C | 31% | 1028.9 hPa | - | - | - | - |
| 1777639399 | 17.78° C | 30% | 1029 hPa | - | - | - | - |
| 1777638798 | 17.22° C | 31% | 1029 hPa | - | - | - | - |
| 1777638199 | 17.78° C | 29% | 1029.1 hPa | - | - | - | - |
| 1777637599 | 18.33° C | 29% | 1029.1 hPa | - | - | - | - |
| 1777636998 | 16.11° C | 31% | 1029.1 hPa | - | - | - | - |
| 1777636399 | 17.22° C | 29% | 1029.2 hPa | - | - | - | - |
| 1777635199 | 17.78° C | 29% | 1029.2 hPa | - | - | - | - |
| 1777634598 | 18.33° C | 27% | 1029.2 hPa | - | - | - | - |
| 1777633998 | 17.22° C | 30% | 1029.2 hPa | - | - | - | - |
| 1777633399 | 18.33° C | 27% | 1029.4 hPa | - | - | - | - |
| 1777632798 | 17.22° C | 29% | 1029.3 hPa | - | - | - | - |
| 1777632198 | 18.33° C | 26% | 1029.4 hPa | - | - | - | - |
| 1777631598 | 18.33° C | 27% | 1029.5 hPa | - | - | - | - |
* Rain since midnight (hover to see other rain measurements)
** Current wind speed in m/s (hover to see current wind gust speed)